Lubbock, TX

1:02 AM CST on December 16, 2019 (GMT -0600)
Lubbock International

Weather History for KLBB - May, 2019

Change the Weather History Date:

Thursday, May 9, 2019

  Actual Average Record
Temperature  
Mean Temperature 53 °F 68 °F  
Max Temperature 61 °F 82 °F 97 °F (1996)
Min Temperature 45 °F 54 °F 38 °F (1961)
Degree Days  
Heating Degree Days 12 2  
Month to date heating degree days 20 20  
Since 1 July heating degree days 3417 3357  
Cooling Degree Days 0 5  
Month to date cooling degree days 28 34  
Year to date cooling degree days 91 90  
Growing Degree Days 4 (Base 50)    
Moisture  
Dew Point 44 °F    
Average Humidity 71    
Maximum Humidity 93    
Minimum Humidity 49    
Precipitation  
Precipitation 0.02 in 0.06 in 1.03 in (1947)
Month to date precipitation 0.14 0.50  
Year to date precipitation 3.06 4.41  
Snow  
Snow 0.00 in 0.00 in T in (1999)
Month to date snowfall T 0.0  
Since 1 July snowfall 10.1 8.2  
Snow Depth 0.00 in    
Sea Level Pressure  
Sea Level Pressure 29.96 in    
Wind  
Wind Speed 13 mph (NNE)    
Max Wind Speed 28 mph    
Max Gust Speed 35 mph    
Visibility 10 miles    
Events Rain , Thunderstorm    
T = Trace of Precipitation, MM = Missing Value Source: NWS Daily Summary

Daily Weather History Graph

Daily Weather History Graph

Search for Another Location

Airport or City:

Astronomy

May. 09, 2019 Rise Set
Actual Time 6:51 AM CDT 8:36 PM CDT
Civil Twilight 6:24 AM CDT 9:03 PM CDT
Nautical Twilight 5:51 AM CDT 9:36 PM CDT
Astronomical Twilight 5:17 AM CDT 10:11 PM CDT
Moon 10:53 AM CDT (5/9) 12:33 AM CDT (5/9)
Length of Visible Light 14h 39m
Length of Day
13h 45m
Waxing Crescent, 25% of the Moon is Illuminated
May 9
Waxing Crescent
May 11
First Quarter
May 18
Full
May 26
Last Quarter
Jun 3
New

Hourly Weather History & Observations

Time (CDT) Temp. Dew Point Humidity Pressure Visibility Wind Dir Wind Speed Gust Speed Precip Events Conditions
12:24 AM 60.1 °F 51.1 °F 72% 29.82 in 10.0 mi NE 24.2 mph 36.8 mph N/A Thunderstorm Thunderstorm
12:39 AM 57.2 °F 48.2 °F 72% 29.90 in 10.0 mi NNW 32.2 mph 43.7 mph N/A Thunderstorm Thunderstorm
12:53 AM 51.8 °F 46.4 °F 82% 29.79 in 10.0 mi NNW 24.2 mph 38.0 mph N/A Rain , Thunderstorm Light Thunderstorms and Rain
1:35 AM 50.0 °F 46.9 °F 89% 29.87 in 10.0 mi NNE 19.6 mph 27.6 mph 0.02 in Rain Light Rain
1:53 AM 50.0 °F 46.0 °F 86% 29.75 in 10.0 mi NNE 20.7 mph 29.9 mph 0.02 in   Scattered Clouds
2:53 AM 50.0 °F 46.9 °F 89% 29.75 in 10.0 mi NE 11.5 mph - N/A   Scattered Clouds
3:53 AM 48.9 °F 46.9 °F 93% 29.77 in 10.0 mi North 6.9 mph - N/A   Scattered Clouds
4:53 AM 48.0 °F 46.0 °F 93% 29.79 in 10.0 mi NNE 5.8 mph - N/A   Partly Cloudy
5:10 AM 48.9 °F 46.0 °F 90% 29.90 in 10.0 mi NNW 8.1 mph - N/A   Mostly Cloudy
5:53 AM 48.9 °F 46.0 °F 90% 29.83 in 10.0 mi North 12.7 mph - N/A   Overcast
6:24 AM 48.2 °F 44.6 °F 87% 29.95 in 10.0 mi North 11.5 mph - N/A   Overcast
6:53 AM 48.0 °F 45.0 °F 89% 29.87 in 10.0 mi North 15.0 mph - N/A   Overcast
7:48 AM 48.2 °F 44.6 °F 87% 29.99 in 10.0 mi North 12.7 mph - 0.00 in   Overcast
7:53 AM 48.0 °F 45.0 °F 89% 29.91 in 10.0 mi North 16.1 mph - 0.00 in   Overcast
8:53 AM 48.0 °F 45.0 °F 89% 29.95 in 10.0 mi NNE 13.8 mph 20.7 mph N/A   Overcast
9:53 AM 48.9 °F 45.0 °F 86% 29.96 in 10.0 mi NNE 16.1 mph - N/A   Overcast
10:26 AM 50.0 °F 45.0 °F 83% 30.06 in 10.0 mi NNE 16.1 mph - N/A   Overcast
10:53 AM 50.0 °F 45.0 °F 83% 30.00 in 10.0 mi North 13.8 mph - N/A   Overcast
11:17 AM 51.1 °F 44.1 °F 77% 30.07 in 10.0 mi NNE 11.5 mph - N/A   Overcast
11:40 AM 53.1 °F 44.1 °F 71% 30.08 in 10.0 mi NNE 13.8 mph - N/A   Overcast
11:53 AM 54.0 °F 44.1 °F 69% 30.01 in 10.0 mi NNE 15.0 mph - N/A   Overcast
12:53 PM 57.0 °F 45.0 °F 64% 30.02 in 10.0 mi North 13.8 mph - N/A   Overcast
1:53 PM 57.9 °F 45.0 °F 62% 30.01 in 10.0 mi NNE 12.7 mph - N/A   Mostly Cloudy
2:24 PM 52.0 °F 45.0 °F 77% 30.08 in 10.0 mi NNE 20.7 mph 28.8 mph N/A   Overcast
2:35 PM 52.0 °F 44.1 °F 74% 30.08 in 10.0 mi NNE 15.0 mph - N/A   Overcast
2:53 PM 53.1 °F 44.1 °F 71% 30.02 in 10.0 mi NNE 21.9 mph 25.3 mph N/A   Overcast
3:49 PM 55.4 °F 44.6 °F 67% 30.06 in 10.0 mi NNE 13.8 mph 23.0 mph N/A   Mostly Cloudy
3:53 PM 57.9 °F 45.0 °F 62% 29.99 in 10.0 mi North 13.8 mph - N/A   Mostly Cloudy
4:53 PM 60.1 °F 42.1 °F 51% 29.96 in 10.0 mi North 16.1 mph 25.3 mph N/A   Mostly Cloudy
5:53 PM 60.1 °F 41.0 °F 49% 29.95 in 10.0 mi North 17.3 mph - N/A   Scattered Clouds
6:53 PM 57.0 °F 41.0 °F 55% 29.96 in 10.0 mi NNE 17.3 mph 24.2 mph N/A   Mostly Cloudy
7:53 PM 54.0 °F 39.9 °F 59% 30.00 in 10.0 mi NNE 18.4 mph - N/A   Mostly Cloudy
8:53 PM 52.0 °F 39.9 °F 63% 30.06 in 10.0 mi NE 12.7 mph - N/A   Mostly Cloudy
9:53 PM 50.0 °F 39.0 °F 66% 30.09 in 10.0 mi ENE 12.7 mph - N/A   Mostly Cloudy
10:53 PM 48.0 °F 39.0 °F 71% 30.09 in 10.0 mi NNE 11.5 mph - N/A   Mostly Cloudy
11:53 PM 46.9 °F 39.0 °F 74% 30.07 in 10.0 mi NE 9.2 mph - N/A   Mostly Cloudy